Погода в Кашире

Погода в Кашире : погода сейчас, прогноз погоды и архив. Всё, что Вы хотите узнать о погоде в Кашире!

Поиск расширенной информации на нашем сайте:

Другие новости

Новости СМИ2

Главная страница сайта

Новости сайта

02.10.2013

Напоминаем, что на нашем новом сайте вы можете получить высокодетализированные прогнозы погоды по пунктам России, СНГ и мира (включающие важные для авиации метеовеличины, такие как направление и скорость ветра, видимость, явления погоды, количество и форма облачности, нижняя и верхняя граница облачности), а также ознакомиться с разнообразными материалами по авиационной метеорологии и подборкой полезных ссылок на эту тему.

Сайт Метеоцентр.Азия посвящён разработке технологий оптимизации авиаметеорологического обслуживания, включая проектирование и перспективное создание нескольких автоматизированных авиаметеорологических систем:
- система выпуска высокодетальных прогностических карт явлений погоды для нижнего воздушного пространства по России и ближнему зарубежью;
- система верификации прогнозов TAF (выпускаемых синоптиками официальных АМСГ РФ и ближнего зарубежья) и AUTOTAF (выпускаемых сайтом Метеоцентр.Азия) - выявление ошибок, онлайн-сопоставление с фактической погодой METAR, автоматическое внесение коррективов в прогнозы при резком отклонении фактической погоды от прогноза, подсчёт оправдываемости прогнозов по элементам и в целом;
- система обработки, анализа и отображения авиаметеорологической информации для применения провайдерами метеорологической информации.


Погода в Кашире - сегодня

Время (UTC), дата Ветер
(°,м/с) 
Видим.   Явления Облачность Т
(°С)
Тd
(°С)
f(%) Тe
(°С)
Pmin
(гПа)
dP
(гПа)
Po
(мм)
O2
(г/м3)
Тmin Tmax R s Состояние
почвы
15 25.02.17 270 (З) 5{12}  10 км    9/9 600 м 
[Sc]
-1.5 -9.1 56 -5  1000.3  0.6  730  297      0.6     
18 25.02.17 260 (З) 4{10}  10 км    8/0 средняя 
[Ac trans]
-2.5 -7.4 69 -5  1001.8  1.4  731  298    -0.3       
21 25.02.17 260 (З) 4{10}  10 км    10/10 300 м кучево-дожд. 
[Cb cap]
-2.7 -6.3 76 -6  1002.5  0.6  731  298           
00 26.02.17 270 (З) 10 км    10/10 300 м кучево-дожд. 
[Cb cap]
-2.8 -6.7 74 -6  1003.2  0.7  732  299           
03 26.02.17 310 (СЗ) 5-10{11}  4000 м  слаб. ливневой снег  10/10 300 м кучево-дожд. 
[Cb cap]
-5.1 -8 80 -9  1006.2  2.7  734  302  -5.1         
06 26.02.17 290 (З) 4{10}  10 км  в посл. час ливневой снег  9/9 300 м кучево-дожд. 
[Cb cap]
-5.6 -8.9 78 -9  1008.9  2.6  736  304  -6.5    0.2  33  равномерный
сухой снег
100% 
09 26.02.17 270 (З) 5-10{12}  20000 м    8/8 600 м 
[Sc]
-2.8 -9 62 -6  1009.5  0.8  737  301           
12 26.02.17 240 (ЮЗ) 5{11}  20000 м    6/0 средняя, верхняя 
[Ac trans|Ci fib]
-1.6 -9.3 56 -5  1008.6  -0.7  736  299           
15 26.02.17 240 (ЮЗ) 3{11}  10 км    8/4 600 м средняя 
[Sc|Ac trans]
-2.1 -10.3 53 -4  1007.9  -0.7  735  300      0.2     
18 26.02.17 220 (ЮЗ) 10 км    8/3 600 м средняя 
[Sc|Ac trans]
-2.4 -9.1 60 -5  1006.6  -1.3  734  299    -0.9       
21 26.02.17 210 (ЮЗ) 4000 м  слаб. ливневой снег  10/10 300 м кучево-дожд. 
[Cb cap]
-2.5 -4 89 -5  1003.9  -2.6  732  298           
00 27.02.17 220 (ЮЗ) 4{10}  4000 м  слаб. ливневой снег  10/10 300 м кучево-дожд. 
[Cb cap]
-1.2 -2.7 90 -4  1001.9  -1.8  731  296           
03 27.02.17 230 (ЮЗ) 4000 м  слаб. ливневой снег  10/10 300 м кучево-дожд. 
[Cb cap]
-0.2 -1.6 90 -3  1001.3  -0.5  731  295  -3    0.6     
06 27.02.17 240 (ЮЗ) 4000 м  слаб. ливневой снег  10/10 300 м кучево-дожд. 
[Cb cap]
+0.3 -0.6 94 -1  1001.5  0.3  731  294  -2.8    35  равномерный
мокрый или
старый снег
100% 
09 27.02.17 250 (З) 4000 м  слаб. ливневой снег  10/10 300 м кучево-дожд. 
[Cb cap]
+1.3 -0.1 90 1002.3  0.9  732  293           
12 27.02.17 280 (З) 10 км  в посл. час ливневой дождь  10/10 300 м кучево-дожд. 
[Cb cap]
+2.1 +0.4 88 +1  1003.9  1.6  733  293           
15 27.02.17 280 (З) 10 км    9/9 300 м кучево-дожд. 
[Cb cap]
+1.6 +0.1 90 1006.5  2.5  735  294         
18 27.02.17 290 (З) 10 км    10/10 300 м кучево-дожд. 
[Cb cap]
+0.6 -0.5 92 -1  1010.4  3.6  737  297    +2.3  0.8     
21 27.02.17 270 (З) 10 км    9/9 600 м 
[Sc]
-0.5 -1.2 95 -1  1012.9  2.3  739  298           
00 28.02.17 280 (З) 10 км    3/3 600 м 
[Sc]
-1.9 -2.7 94 -3  1015.5  2.3  741  301           
03 28.02.17 250 (З) 10 км    9/9 600 м 
[Sc]
-2.7 -3.8 92 -4  1017.6  742  303  -3.4         
06 28.02.17 170 (Ю) 10 км    9/9 600 м 
[Sc]
-1.5 -3.7 85 -1  1019.1  1.6  744  302  -3.4      33  равномерный
мокрый или
старый снег
100% 
09 28.02.17 170 (Ю) 20000 м    8/3 600 м верхняя 
[Sc|Ci fib]
+2.7 -2.3 70 +2  1019.5  0.7  744  297           
12 28.02.17 160 (Ю) 20000 м    8/0 верхняя 
[Ci fib]
+2.6 -3.2 66 +1  1018.9  -0.6  744  297           
15 28.02.17 170 (Ю) 10 км    9/9 600 м 
[Sc]
+2 -2.1 74 +1  1018.3  -0.6  743  298           
Время (UTC), дата Ветер
(°,м/с) 
Видим.   Явления Облачность Т
(°С)
Тd
(°С)
f(%) Тe
(°С)
Pmin
(гПа)
dP
(гПа)
Po
(мм)
O2
(г/м3)
Тmin Tmax R s Состояние
почвы

Для получения пояснительной информации подведите курсор к названию столбца.

ПОГОДА в Кашире - архив

Всё, что Вы хотите узнать о погоде в Кашире - удобно и подробно!

Выберите нужную дату (начиная с 1 января 2015* года) и нажмите кнопку "Найти".
Будут отображены архивные сводки погоды по пункту Кашира, начиная с указанной даты.


Отображать данные в формате CSV (для использования в таблицах Excel)


Внимание! Наш архив погоды предназначен исключительно для личного некоммерческого использования в познавательных целях. Если Вам необходимы официальные справки о состоянии погоды (для производственных, юридических, коммерческих и т.п. целей), обращайтесь в органы Росгидромета.

*Примечание: данная дата относится к архиву по метеостанциям СССР (Россия, СНГ, Балтия).
Архив по метеостанциям Зарубежной Европы и Азии (кроме Китая) хранится 10 дней, по другим регионам земного шара (Китай, Африка, Америка, Австралия, Океания) - 1 день.

Кашира - район местоположения метеостанции


Название, широта, долгота, высота метеостанции:
Кашира 54.8°ш. 38.2°д. 221 м над ур. моря [Российская Федерация]

Дополнительная информация

В oтличие oт бoльшинства пoгoдных сайтoв мы публикуем пoдрoбную метеoинфoрмацию в детальнoм прoфессиoнальнoм фoрмате.

Характеристики температуры и влажнoсти вoздуха измеряются на высoте 2 м в тени вдали oт зданий и деревьев.
Скoрoсть ветра измеряется на высoте 10 м (на урoвне рoста челoвека скoрoсть ветра ниже в 1.5-2 раза). Если метеoстанция нахoдится в гoрoде или в лесу, тo скoрoсть ветра занижена на 2-4 м/с пo сравнению с oткрытым местoм. Скoрoсть ветра над акватoриями крупных рек и oзёр, а также на вершинах хoлмoв на 2-5 м/с выше, чем в oбычных услoвиях.
Атмoсфернoе давление в разных тoчках местнoсти мoжет значительнo oтличаться oт давления на метеoстанции, в зависимoсти oт услoвий рельефа (при пoдъёме на 10 м давление пoнижается примернo на 1 мм рт.ст.).